DUPLEX

operational
NORAD ID: 66910 Int'l Des: NNA 1998-067 Owner: CUA Country: US
LEOCIRCULAR

Über DUPLEX

Beschreibung wird geladen...

Live-Position

3D-Globus wird geladen...

Nächste Überflüge

Höhenverlauf

Altitude vs Time

uPlot chart will show altitude changes over time

Zweizeiliger Elementsatz

1 66910U 98067XW 25347.69034568 .00065203 00000-0 10657-2 0 9991
2 66910 51.6299 137.6381 0005084 213.9756 146.0909 15.51910394 1766
Epoch: 13. Dez. 2025 • Age: 15 hours

Aktueller Status

Höhe 415.6 km
Geschwindigkeit 7.66 km/s
Subsatellitenpunkt -27.76°S, 144.75°E
Startdatum 14. Sept. 2025
Alter 0.2 years
Typ other

Technische Details

Klassifizierung Payload
Masse 10.00 kg
Trockenmasse 10.00 kg
Gesamtmasse 10.00 kg
Länge 0.30 m
Durchmesser 0.20 m
Spannweite 0.30 m
Form Box
Hersteller CUA
Bus-Typ Cubesat 6U
Phasenstatus In Orbit
Besitzer/Staat CUA/US

Große Konstellationen

Loading constellations...